Tracking 19638 objects as of 18-Apr-2019
HD Live streaming from Space Station
objects crossing your sky now

SL-8 R/B

Track SL-8 R/B now!
10-day predictions


NORAD ID: 4391
Int'l Code: 1970-036J
Perigee: 1,475.5 km
Apogee: 1,594.8 km
Inclination: 74.0 °
Period: 116.6 minutes
Semi major axis: 7906 km
RCS: 6.0858 m2 (large)
Launch date: April 25, 1970
Source: Commonwealth of Independent States (former USSR) (CIS)
Launch site: PLESETSK MISSILE AND SPACE COMPLEX (PKMTR)

Note: This is a ROCKET BODY
aabbcc
Your satellite tracking list
Your tracking list is empty




NASA's NSSDC Master Catalog

Two Line Element Set (TLE):
1  4391U 70036J   19107.91608300 -.00000037 +00000-0 -17193-3 0  9994
2  4391 074.0299 045.6227 0075427 053.7582 012.6845 12.34961248207949
Source of the keplerian elements: AFSPC